Location: The Saddle
(36.8333°N, 80.3417°W)
Time: 08:57:12
(UTC-05:00)

Vanguard 2 Rocket - Pass Details

Date: 17 December 2023
Orbit: 555 x 3309 km, 32.9° (Epoch: 02 March)

Event Time Altitude Azimuth Distance (km) Brightness Sun altitude
Rises 13:16:02 0° 262° (W) 4,849 10.9 28.2°
Reaches altitude 10° 13:18:42 10° 261° (W) 4,155 10.7 28.1°
Maximum altitude 13:30:54 77° 178° (S) 2,651 9.9 27.4°
Drops below altitude 10° 13:50:20 10° 97° (E) 6,228 11.1 25.9°
Sets 13:55:21 0° 96° (E) 7,293 11.3 25.5°
